Погода Земетчино

Погода Земетчино : погода сейчас, прогноз погоды и архив. Всё, что Вы хотите узнать о погоде Земетчино!

Поиск расширенной информации на нашем сайте:

Другие новости

Новости СМИ2

Главная страница сайта

Новости сайта

02.10.2013

Напоминаем, что на нашем новом сайте вы можете получить высокодетализированные прогнозы погоды по пунктам России, СНГ и мира (включающие важные для авиации метеовеличины, такие как направление и скорость ветра, видимость, явления погоды, количество и форма облачности, нижняя и верхняя граница облачности), а также ознакомиться с разнообразными материалами по авиационной метеорологии и подборкой полезных ссылок на эту тему.

Сайт Метеоцентр.Азия посвящён разработке технологий оптимизации авиаметеорологического обслуживания, включая проектирование и перспективное создание нескольких автоматизированных авиаметеорологических систем:
- система выпуска высокодетальных прогностических карт явлений погоды для нижнего воздушного пространства по России и ближнему зарубежью;
- система верификации прогнозов TAF (выпускаемых синоптиками официальных АМСГ РФ и ближнего зарубежья) и AUTOTAF (выпускаемых сайтом Метеоцентр.Азия) - выявление ошибок, онлайн-сопоставление с фактической погодой METAR, автоматическое внесение коррективов в прогнозы при резком отклонении фактической погоды от прогноза, подсчёт оправдываемости прогнозов по элементам и в целом;
- система обработки, анализа и отображения авиаметеорологической информации для применения провайдерами метеорологической информации.

Рекомендуем: http://audiozakon.com.ua/ кзот украины 2015 на русском языке.

Погода Земетчино - сегодня

Время (UTC), дата Ветер
(°,м/с) 
Видим.   Явления Облачность Т
(°С)
Тd
(°С)
f(%) Тe
(°С)
Pmin
(гПа)
dP
(гПа)
Po
(мм)
O2
(г/м3)
Тmin Tmax R s Состояние
почвы
06 17.02.17 150 (ЮВ) 20000 м    ясно 
-21.8 -23 90 -25  1027.5  -0.8  757  333  -22.8         
09 17.02.17 200 (Ю) 20000 м    9/0 средняя 
[Ac trans]
-9 -12.4 76 -12  1024.7  -2.3  755  316           
12 17.02.17 180 (Ю) 20000 м    9/0 средняя 
[Ac As]
-7.1 -11.4 71 -10  1021.5  -2.8  753  313           
15 17.02.17 190 (Ю) 20000 м    10/0 средняя 
[Ac und]
-7.5 -11 76 -10  1019.3  -2.1  752  312    -7.1       
18 17.02.17 210 (ЮЗ) 10 км  {снег}  10/0 средняя 
[As op]
-6.5 -8.5 86 -9  1017.6  -1.7  750  311           
21 17.02.17 210 (ЮЗ) 53  10 км    10/0 средняя 
[As op]
-6 -7.9 86 -19  1015.5  -1.9  749  309           
00 18.02.17 210 (ЮЗ) 10 км  {снег}  10/0 средняя 
[As op]
-5.8 -7.6 87 -8  1013.8  -1.6  748  309           
03 18.02.17 240 (ЮЗ) 10 км    10/0 средняя 
[As op]
-5 -6.3 91 -7  1012.3  -1.5  747  307  -6.5    0.2  45  равномерный
сухой снег
100% 
06 18.02.17 250 (З) 4000 м  слаб. снег  10/0 средняя 
[As op]
-3.8 -4.6 94 -6  1011.4  -0.7  746  305           
09 18.02.17 250 (З) 20000 м  {снег}  10/0 средняя 
[As op]
-0.3 -2.1 88 -2  1010.8  -0.4  746  301           
12 18.02.17 260 (З) 10 км  {снег}  10/10 480 м 
[Ns]
+1.6 +0.5 92 +1  1010.3  -0.4  746  299           
15 18.02.17 260 (З) 10 км    10/10 570 м 
[Ns]
+2.1 +0.5 89 +1  1010.7  0.4  746  298    +2.3  0.6     
18 18.02.17 270 (З) 10 км    10/10 300 м 
[Ns]
+1.9 +0 87 1010.7  746  298           
21 18.02.17 280 (З) 4000 м  слаб. морось  10/10 270 м 
[St]
+1.7 +0.6 92 1010.4  -0.3  746  298           
00 19.02.17 280 (З) 10 км  {морось}  10/9 600 м 
[Sc]
+1.5 -0.1 89 1010.7  0.3  746  299           
03 19.02.17 280 (З) 10 км    8/0 средняя 
[Ac trans]
+1.8 -1.3 80 1012.1  1.4  747  299  +1.4    0.0  40  равномерный
мокрый или
старый снег
100% 
06 19.02.17 270 (З) 20000 м    8/0 средняя 
[Ac trans]
+1.4 -2.1 77 -1  1014.6  2.3  749  300           
09 19.02.17 290 (З) 20000 м    8/0 средняя 
[Ac trans]
+1.9 -3.1 69 1016.4  1.8  750  300           
12 19.02.17 270 (З) 20000 м    9/0 средняя 
[As trans]
+2.2 -2.4 72 1016.2  -0.1  750  300           
15 19.02.17 230 (ЮЗ) 10 км    8/0 средняя 
[As op]
+1 -3.2 73 -1  1015.3  -1  749  301    +2.6       
18 19.02.17 250 (З) 10 км    10/0 верхняя 
[Cs]
-0.6 -3.4 81 -2  1014.3  -1.1  748  303           
21 19.02.17 240 (ЮЗ) 10 км    10/0 средняя, верхняя 
[Ac trans|Cc]
-0.4 -2.2 88 -3  1012.6  -1.5  747  302           
00 20.02.17 260 (З) 5{11}  10 км    10/10 700 м кучево-дожд. 
[Cb calv]
+1.2 -1.1 85 -2  1011.5  -1.1  746  300           
03 20.02.17 260 (З) 4{11}  10 км    10/10 660 м кучево-дожд. 
[Cb calv]
+1.7 -0.8 83 1010.4  -1  746  299  -0.9      38  равномерный
мокрый или
старый снег
100% 
06 20.02.17 250 (З) 5{13}  20000 м    10/10 660 м кучево-дожд. 
[Cb calv]
+2 -1.1 80 -1  1009.8  -0.6  745  298           
Время (UTC), дата Ветер
(°,м/с) 
Видим.   Явления Облачность Т
(°С)
Тd
(°С)
f(%) Тe
(°С)
Pmin
(гПа)
dP
(гПа)
Po
(мм)
O2
(г/м3)
Тmin Tmax R s Состояние
почвы

Для получения пояснительной информации подведите курсор к названию столбца.

ПОГОДА Земетчино - архив

Всё, что Вы хотите узнать о погоде Земетчино - удобно и подробно!

Выберите нужную дату (начиная с 1 января 2015* года) и нажмите кнопку "Найти".
Будут отображены архивные сводки погоды по пункту Земетчино, начиная с указанной даты.


Отображать данные в формате CSV (для использования в таблицах Excel)


Внимание! Наш архив погоды предназначен исключительно для личного некоммерческого использования в познавательных целях. Если Вам необходимы официальные справки о состоянии погоды (для производственных, юридических, коммерческих и т.п. целей), обращайтесь в органы Росгидромета.

*Примечание: данная дата относится к архиву по метеостанциям СССР (Россия, СНГ, Балтия).
Архив по метеостанциям Зарубежной Европы и Азии (кроме Китая) хранится 10 дней, по другим регионам земного шара (Китай, Африка, Америка, Австралия, Океания) - 1 день.

Земетчино - район местоположения метеостанции


Название, широта, долгота, высота метеостанции:
Земетчино 53.5°ш. 42.6°д. 131 м над ур. моря [Российская Федерация]

Дополнительная информация

В oтличие oт бoльшинства пoгoдных сайтoв мы публикуем пoдрoбную метеoинфoрмацию в детальнoм прoфессиoнальнoм фoрмате.

Характеристики температуры и влажнoсти вoздуха измеряются на высoте 2 м в тени вдали oт зданий и деревьев.
Скoрoсть ветра измеряется на высoте 10 м (на урoвне рoста челoвека скoрoсть ветра ниже в 1.5-2 раза). Если метеoстанция нахoдится в гoрoде или в лесу, тo скoрoсть ветра занижена на 2-4 м/с пo сравнению с oткрытым местoм. Скoрoсть ветра над акватoриями крупных рек и oзёр, а также на вершинах хoлмoв на 2-5 м/с выше, чем в oбычных услoвиях.
Атмoсфернoе давление в разных тoчках местнoсти мoжет значительнo oтличаться oт давления на метеoстанции, в зависимoсти oт услoвий рельефа (при пoдъёме на 10 м давление пoнижается примернo на 1 мм рт.ст.).